Weather History for Oscoda, MI

Change the Weather History Date:

Tuesday, March 25, 2014

  Actual Average Record
Temperature  
Mean Temperature 18 °F -  
Max Temperature 28 °F 42 °F 66 °F (2004)
Min Temperature 8 °F 25 °F 1 °F (2011)
Degree Days  
Heating Degree Days 47    
Moisture  
Dew Point 6 °F    
Average Humidity 60    
Maximum Humidity 91    
Minimum Humidity 35    
Precipitation  
Precipitation 0.03 in - - ()
Sea Level Pressure  
Sea Level Pressure 29.94 in    
Wind  
Wind Speed 7 mph (WNW)    
Max Wind Speed 22 mph    
Max Gust Speed 29 mph    
Visibility 8 miles    
Events Snow    
Averages and records for this station are not official NWS values.
T = Trace of Precipitation, MM = Missing Value Source: NWS Daily Summary

Daily Weather History Graph

Daily Weather History Graph

Search for Another Location

Airport:

Trip Planner

Search our weather history database for the weather conditions in past years. The results will help you decide how hot, cold, wet, or windy it might be!

Date:

Astronomy

Mar. 25, 2014 Rise Set
Actual Time 7:27 AM EDT 7:52 PM EDT
Civil Twilight 6:58 AM EDT 8:21 PM EDT
Nautical Twilight 6:24 AM EDT 8:55 PM EDT
Astronomical Twilight 5:48 AM EDT 9:31 PM EDT
Moon 4:00 AM EDT (3/25) 2:10 PM EDT (3/25)
Length of Visible Light 13h 23m
Length of Day
12h 24m
Waning Crescent, 32% of the Moon is Illuminated
Mar 25
Waning Crescent
Mar 30
New
Apr 7
First Quarter
Apr 15
Full
Apr 22
Last Quarter

Hourly Weather History & Observations

Time (EDT) Temp. Windchill Dew Point Humidity Pressure Visibility Wind Dir Wind Speed Gust Speed Precip Events Conditions
12:14 AM 12.0 °F - 3.2 °F 68% 30.00 in 10.0 mi Calm Calm - N/A   Clear
12:34 AM 10.0 °F 0.4 °F 3.0 °F 73% 30.00 in 10.0 mi SW 5.8 mph - N/A   Scattered Clouds
12:54 AM 15.1 °F 4.2 °F 5.2 °F 65% 29.99 in 10.0 mi SSW 8.1 mph - N/A   Overcast
1:14 AM 15.6 °F 4.9 °F 5.5 °F 64% 29.98 in 10.0 mi SW 8.1 mph - N/A   Scattered Clouds
1:34 AM 15.8 °F 6.1 °F 5.9 °F 65% 29.96 in 10.0 mi SSW 6.9 mph - N/A   Clear
1:54 AM 16.5 °F 6.9 °F 6.8 °F 66% 29.95 in 10.0 mi SSW 6.9 mph - N/A   Clear
2:14 AM 16.3 °F 5.7 °F 6.6 °F 66% 29.94 in 10.0 mi SSW 8.1 mph - N/A   Clear
2:34 AM 15.1 °F 5.2 °F 7.2 °F 71% 29.93 in 10.0 mi SSW 6.9 mph - N/A   Clear
2:54 AM 10.6 °F 2.5 °F 4.5 °F 76% 29.93 in 10.0 mi SSW 4.6 mph - N/A   Scattered Clouds
3:14 AM 11.7 °F 3.7 °F 6.6 °F 80% 29.91 in 10.0 mi SSW 4.6 mph - N/A   Mostly Cloudy
3:34 AM 16.5 °F 6.9 °F 10.9 °F 79% 29.90 in 3.0 mi SSW 6.9 mph - N/A Snow Light Snow
3:54 AM 17.1 °F 8.7 °F 14.2 °F 88% 29.90 in 1.0 mi SW 5.8 mph - N/A Snow Snow
4:14 AM 18.1 °F 12.9 °F 15.6 °F 90% 29.89 in 0.5 mi SSW 3.5 mph - N/A Snow Heavy Snow
4:34 AM 19.0 °F - 16.7 °F 91% 29.88 in 1.0 mi Calm Calm - N/A Snow Snow
4:54 AM 19.0 °F - 16.5 °F 90% 29.88 in 1.2 mi Calm Calm - N/A Snow Snow
5:14 AM 19.2 °F - 16.9 °F 91% 29.86 in 0.5 mi Calm Calm - 0.01 in Snow Snow
5:34 AM 19.0 °F - 16.7 °F 91% 29.86 in 1.5 mi Calm Calm - 0.02 in Snow Light Snow
5:54 AM 19.0 °F - 16.7 °F 91% 29.84 in 4.0 mi Calm Calm - 0.03 in Snow Light Snow
6:14 AM 17.6 °F 12.3 °F 15.3 °F 91% 29.84 in 7.0 mi North 3.5 mph - N/A Snow Light Snow
6:34 AM 17.6 °F 12.3 °F 15.4 °F 91% 29.83 in 7.0 mi North 3.5 mph - N/A Snow Light Snow
6:54 AM 19.0 °F 9.0 °F 16.7 °F 91% 29.84 in 5.0 mi NNW 8.1 mph - N/A Snow Light Snow
7:14 AM 19.4 °F 7.2 °F 16.7 °F 89% 29.84 in 2.0 mi NW 11.5 mph - N/A Snow Light Snow
7:33 AM 19.0 °F 8.2 °F 15.8 °F 87% 29.85 in 3.0 mi NW 9.2 mph - N/A Snow Light Snow
7:54 AM 18.3 °F 9.1 °F 14.7 °F 86% 29.85 in 10.0 mi NNW 6.9 mph - N/A   Mostly Cloudy
8:14 AM 17.6 °F 7.3 °F 14.0 °F 86% 29.86 in 10.0 mi NW 8.1 mph - N/A   Mostly Cloudy
8:33 AM 17.6 °F 10.7 °F 13.8 °F 85% 29.86 in 10.0 mi NW 4.6 mph - N/A   Overcast
8:54 AM 17.2 °F 10.2 °F 13.3 °F 84% 29.86 in 7.0 mi NW 4.6 mph - N/A   Mostly Cloudy
9:14 AM 16.9 °F 8.5 °F 12.7 °F 84% 29.86 in 7.0 mi WNW 5.8 mph - N/A   Scattered Clouds
9:33 AM 20.5 °F 10.8 °F 12.7 °F 72% 29.86 in 10.0 mi NW 8.1 mph - N/A   Scattered Clouds
9:54 AM 21.6 °F 9.9 °F 12.4 °F 68% 29.87 in 10.0 mi NW 11.5 mph - N/A   Scattered Clouds
10:14 AM 22.8 °F 11.5 °F 11.5 °F 62% 29.87 in 10.0 mi NW 11.5 mph - N/A   Clear
10:33 AM 23.9 °F 13.5 °F 10.4 °F 56% 29.88 in 10.0 mi NW 10.4 mph - N/A   Clear
10:54 AM 24.8 °F 15.3 °F 9.7 °F 53% 29.88 in 10.0 mi NNW 9.2 mph - N/A   Clear
11:14 AM 25.9 °F 16.6 °F 9.1 °F 49% 29.88 in 10.0 mi NW 9.2 mph - N/A   Clear
11:34 AM 26.4 °F 16.6 °F 7.3 °F 45% 29.88 in 10.0 mi NW 10.4 mph - N/A   Clear
11:54 AM 27.3 °F 16.1 °F 7.2 °F 43% 29.89 in 10.0 mi WNW 13.8 mph 17.3 mph N/A   Scattered Clouds
12:14 PM 27.3 °F 19.1 °F 8.1 °F 44% 29.89 in 10.0 mi WNW 8.1 mph - N/A   Mostly Cloudy
12:34 PM 28.2 °F 20.2 °F 8.2 °F 43% 29.89 in 10.0 mi West 8.1 mph 18.4 mph N/A   Overcast
12:54 PM 28.6 °F 16.8 °F 5.2 °F 37% 29.89 in 10.0 mi West 16.1 mph 21.9 mph N/A   Overcast
1:14 PM 27.5 °F 15.4 °F 9.5 °F 47% 29.90 in 10.0 mi West 16.1 mph - N/A   Mostly Cloudy
1:34 PM 26.6 °F 13.1 °F 12.2 °F 55% 29.90 in 7.0 mi WSW 19.6 mph 25.3 mph N/A   Overcast
1:54 PM 25.0 °F 12.6 °F 15.4 °F 67% 29.92 in 3.0 mi WNW 15.0 mph 25.3 mph N/A Snow Light Snow
2:14 PM 27.5 °F 22.2 °F 14.0 °F 57% 29.91 in 10.0 mi WNW 4.6 mph - N/A   Mostly Cloudy
2:34 PM 24.6 °F 11.7 °F 16.2 °F 70% 29.91 in 3.0 mi NW 16.1 mph 21.9 mph N/A Snow Light Snow
2:54 PM 25.7 °F 15.1 °F 11.1 °F 54% 29.91 in 10.0 mi NW 11.5 mph 23.0 mph N/A   Overcast
3:14 PM 27.0 °F 13.9 °F 9.1 °F 47% 29.91 in 10.0 mi NW 18.4 mph 21.9 mph N/A   Overcast
3:34 PM 25.3 °F 13.1 °F 8.6 °F 49% 29.92 in 10.0 mi NW 15.0 mph 23.0 mph N/A   Overcast
3:54 PM 25.3 °F 13.1 °F 6.8 °F 45% 29.92 in 10.0 mi WNW 15.0 mph 24.2 mph N/A   Overcast
4:13 PM 26.6 °F 14.7 °F 4.1 °F 38% 29.93 in 10.0 mi NW 15.0 mph 24.2 mph N/A   Mostly Cloudy
4:34 PM 25.5 °F 10.9 °F 4.5 °F 41% 29.93 in 10.0 mi NNW 21.9 mph 26.5 mph N/A   Overcast
4:54 PM 24.8 °F 10.0 °F 2.7 °F 39% 29.94 in 10.0 mi NW 21.9 mph 28.8 mph N/A   Mostly Cloudy
5:14 PM 24.4 °F 10.6 °F 0.3 °F 35% 29.95 in 10.0 mi NW 18.4 mph 24.2 mph N/A   Scattered Clouds
5:34 PM 23.2 °F 8.2 °F -0.2 °F 36% 29.96 in 10.0 mi WNW 20.7 mph 25.3 mph N/A   Clear
5:54 PM 22.8 °F 9.4 °F -0.8 °F 36% 29.97 in 7.0 mi WNW 16.1 mph 25.3 mph N/A   Clear
6:13 PM 22.8 °F 9.4 °F 1.4 °F 40% 29.98 in 10.0 mi WNW 16.1 mph 24.2 mph N/A   Scattered Clouds
6:34 PM 21.7 °F 9.0 °F -1.1 °F 37% 29.99 in 10.0 mi WNW 13.8 mph 24.2 mph N/A   Scattered Clouds
6:54 PM 20.7 °F 6.1 °F -1.7 °F 38% 30.01 in 10.0 mi WNW 17.3 mph 25.3 mph N/A   Clear
7:13 PM 19.8 °F 5.4 °F -3.1 °F 37% 30.01 in 7.0 mi NW 16.1 mph 26.5 mph N/A   Clear
7:34 PM 18.7 °F 6.3 °F -3.8 °F 37% 30.03 in 10.0 mi NW 11.5 mph 21.9 mph N/A   Clear
7:54 PM 17.8 °F 5.9 °F -4.4 °F 37% 30.04 in 10.0 mi NW 10.4 mph 19.6 mph N/A   Clear
8:13 PM 16.9 °F 3.4 °F -5.4 °F 37% 30.05 in 10.0 mi WNW 12.7 mph 17.3 mph N/A   Clear
8:34 PM 16.2 °F 4.7 °F -5.3 °F 39% 30.06 in 10.0 mi WNW 9.2 mph 17.3 mph N/A   Clear
8:54 PM 14.9 °F 0.9 °F -5.3 °F 41% 30.07 in 10.0 mi WNW 12.7 mph 17.3 mph N/A   Clear
9:13 PM 14.4 °F 5.5 °F -5.8 °F 41% 30.08 in 10.0 mi WNW 5.8 mph - N/A   Clear
9:34 PM 12.4 °F 3.1 °F -6.0 °F 44% 30.09 in 10.0 mi NW 5.8 mph - N/A   Clear
9:54 PM 11.7 °F 3.7 °F -6.3 °F 44% 30.10 in 10.0 mi WNW 4.6 mph - N/A   Clear
10:13 PM 10.8 °F 2.7 °F -5.8 °F 47% 30.11 in 10.0 mi WNW 4.6 mph - N/A   Clear
10:34 PM 9.9 °F 3.4 °F -5.6 °F 50% 30.12 in 10.0 mi WNW 3.5 mph - N/A   Clear
10:53 PM 9.5 °F - -4.2 °F 54% 30.12 in 10.0 mi Calm Calm - N/A   Clear
11:14 PM 8.6 °F 2.0 °F -4.7 °F 55% 30.13 in 10.0 mi NW 3.5 mph - N/A   Clear
11:34 PM 9.3 °F - -4.5 °F 54% 30.14 in 10.0 mi Calm Calm - N/A   Clear
11:53 PM 8.1 °F 1.4 °F -5.6 °F 54% 30.15 in 10.0 mi West 3.5 mph - N/A   Clear